{"data":{"norad_id":47748,"epoch":"2026-05-25T06:00:02.000160Z","epoch_age_seconds":67541,"freshness":"FRESH","line1":"1 47748U 21017AC  26145.25002315  .01141645  00000+0  69889-2 0  9990","line2":"2 47748  53.1531 182.7772 0001097  84.4939 320.7030 15.74438287  5894","mean_motion":15.74438287,"eccentricity":0.0001097,"inclination_deg":53.1531,"raan_deg":182.7772,"arg_perigee_deg":84.4939,"mean_anomaly_deg":320.703,"bstar":0.0069889,"rev_number":589,"period_min":91.461190437882,"perigee_km":345.49241313722,"apogee_km":346.96773927374,"semimajor_km":6724.3670762055,"source":"CELESTRAK","updated_at":"2026-05-25T13:38:16.567284Z"}}